Chattanooga, TN

1:22 PM EST on January 23, 2018 (GMT -0500)
Lovell

Weather History for KCHA - January, 2015

Change the Weather History Date:

Friday, January 2, 2015

  Actual Average Record
Temperature  
Mean Temperature 44 °F 40 °F  
Max Temperature 45 °F 50 °F 69 °F (1952)
Min Temperature 42 °F 31 °F 0 °F (1928)
Degree Days  
Heating Degree Days 21 25  
Month to date heating degree days 49 50  
Since 1 July heating degree days 1310 1334  
Cooling Degree Days 0 0  
Month to date cooling degree days 0 0  
Year to date cooling degree days 0 0  
Moisture  
Dew Point 40 °F    
Average Humidity 86    
Maximum Humidity 96    
Minimum Humidity 76    
Precipitation  
Precipitation 0.29 in 0.14 in 2.87 in (1937)
Month to date precipitation 0.30 0.29  
Year to date precipitation 0.30 0.29  
Snow  
Snow 0.00 in 0.10 in - ()
Month to date snowfall 0.0 0.1  
Since 1 July snowfall T 0.4  
Snow Depth 0.00 in    
Sea Level Pressure  
Sea Level Pressure 30.31 in    
Wind  
Wind Speed 2 mph (NNE)    
Max Wind Speed 8 mph    
Max Gust Speed 10 mph    
Visibility 6 miles    
Events Fog , Rain    
T = Trace of Precipitation, MM = Missing Value Source: NWS Daily Summary

Daily Weather History Graph

Daily Weather History Graph

Search for Another Location

Airport or City:

Trip Planner

Search our weather history database for the weather conditions in past years. The results will help you decide how hot, cold, wet, or windy it might be!

Date:

Astronomy

Jan. 02, 2015 Rise Set
Actual Time 7:49 AM EST 5:40 PM EST
Civil Twilight 7:21 AM EST 6:08 PM EST
Nautical Twilight 6:49 AM EST 6:40 PM EST
Astronomical Twilight 6:18 AM EST 7:11 PM EST
Moon 3:56 PM EST (1/2) 5:18 AM EST (1/2)
Length of Visible Light 10h 47m
Length of Day
9h 51m
Waxing Gibbous, 94% of the Moon is Illuminated
Jan 2
Waxing Gibbous
Jan 4
Full
Jan 13
Last Quarter
Jan 20
New
Jan 26
First Quarter

Hourly Weather History & Observations

Time (EST) Temp. Windchill Dew Point Humidity Pressure Visibility Wind Dir Wind Speed Gust Speed Precip Events Conditions
12:53 AM 42.1 °F - 37.0 °F 82% 30.31 in 10.0 mi Calm Calm - N/A   Overcast
1:53 AM 42.1 °F - 37.0 °F 82% 30.29 in 10.0 mi Calm Calm - N/A   Overcast
2:53 AM 43.0 °F - 37.0 °F 80% 30.29 in 10.0 mi Calm Calm - N/A   Overcast
3:53 AM 43.0 °F - 37.0 °F 80% 30.30 in 10.0 mi Calm Calm - N/A   Overcast
4:53 AM 43.0 °F 40.3 °F 37.9 °F 82% 30.28 in 10.0 mi NNE 4.6 mph - 0.00 in Rain Light Rain
5:23 AM 43.0 °F - 36.0 °F 76% 30.28 in 10.0 mi Calm Calm - 0.00 in   Overcast
5:53 AM 43.0 °F - 37.0 °F 80% 30.29 in 7.0 mi Calm Calm - 0.00 in   Overcast
6:53 AM 43.0 °F - 37.0 °F 80% 30.28 in 7.0 mi Calm Calm - N/A   Overcast
7:53 AM 43.0 °F - 37.9 °F 82% 30.32 in 7.0 mi Calm Calm - N/A   Overcast
8:53 AM 44.1 °F - 37.0 °F 76% 30.32 in 7.0 mi Calm Calm - N/A   Overcast
9:53 AM 44.6 °F - 37.4 °F 76% 30.37 in 7.0 mi Calm Calm - N/A   Overcast
10:53 AM 43.0 °F 41.3 °F 39.0 °F 86% 30.38 in 7.0 mi NNE 3.5 mph - 0.05 in Rain Light Rain
11:53 AM 43.0 °F - 39.0 °F 86% 30.37 in 5.0 mi Calm Calm - 0.02 in Fog Patches of Fog
12:10 PM 43.0 °F - 39.0 °F 86% 30.36 in 5.0 mi Calm Calm - 0.00 in Fog Patches of Fog
12:53 PM 44.1 °F - 39.0 °F 82% 30.34 in 7.0 mi Calm Calm - 0.00 in   Overcast
1:53 PM 43.0 °F 41.3 °F 39.0 °F 86% 30.32 in 7.0 mi SE 3.5 mph - N/A   Overcast
2:32 PM 43.0 °F - 39.0 °F 86% 30.30 in 6.0 mi Calm Calm - 0.00 in   Overcast
2:53 PM 44.1 °F - 39.0 °F 82% 30.31 in 6.0 mi Calm Calm - 0.01 in Rain Light Rain
3:53 PM 43.0 °F 40.3 °F 41.0 °F 93% 30.32 in 6.0 mi NNE 4.6 mph - 0.09 in Rain Rain
4:45 PM 43.0 °F - 42.1 °F 97% 30.30 in 1.8 mi Calm Calm - 0.10 in Rain Rain
4:53 PM 44.1 °F - 41.0 °F 89% 30.30 in 1.8 mi Calm Calm - 0.11 in Rain Rain
5:00 PM 44.1 °F - 41.0 °F 89% 30.30 in 1.8 mi Calm Calm - 0.00 in Rain Rain
5:53 PM 44.1 °F 40.1 °F 42.1 °F 93% 30.30 in 1.8 mi North 6.9 mph - 0.01 in   Overcast
6:53 PM 44.1 °F 40.8 °F 42.1 °F 93% 30.31 in 3.0 mi North 5.8 mph - N/A   Overcast
7:53 PM 44.1 °F 40.8 °F 42.1 °F 93% 30.30 in 6.0 mi North 5.8 mph - 0.00 in   Overcast
8:53 PM 44.1 °F 42.5 °F 42.1 °F 93% 30.30 in 6.0 mi NNE 3.5 mph - N/A   Overcast
9:53 PM 44.1 °F - 42.1 °F 93% 30.29 in 9.0 mi Calm Calm - N/A   Overcast
10:53 PM 44.1 °F - 42.1 °F 93% 30.28 in 3.0 mi Calm Calm - N/A   Overcast
11:00 PM 44.6 °F 43.1 °F 42.8 °F 93% 30.27 in 1.8 mi North 3.5 mph - N/A Rain Light Rain
11:53 PM 45.0 °F - 43.0 °F 93% 30.27 in 1.8 mi Calm Calm - 0.00 in Rain Light Rain
11:58 PM 44.1 °F - 43.0 °F 96% 30.26 in 2.0 mi Calm Calm - 0.00 in   Overcast